Weather History for Edinburgh Airport, United Kingdom

Change the Weather History Date:

Sunday, January 6, 2013

  Actual Average Record
Temperature  
Mean Temperature 43 °F -  
Max Temperature 51 °F 43 °F 53 °F (2005)
Min Temperature 35 °F 33 °F 21 °F (2003)
Degree Days  
Heating Degree Days 22    
Moisture  
Dew Point 42 °F    
Average Humidity 89    
Maximum Humidity 100    
Minimum Humidity 76    
Precipitation  
Precipitation 0.00 in 0.07 in - ()
Sea Level Pressure  
Sea Level Pressure 30.30 in    
Wind  
Wind Speed 7 mph ()    
Max Wind Speed 15 mph    
Max Gust Speed -    
Visibility 6.2 miles    
Events Fog , Rain    
Averages and records for this station are not official NWS values.
T = Trace of Precipitation, MM = Missing Value Source: Averaged Metar Reports

Daily Weather History Graph

Daily Weather History Graph

Search for Another Location

Airport:

Trip Planner

Search our weather history database for the weather conditions in past years. The results will help you decide how hot, cold, wet, or windy it might be!

Date:

Astronomy

Jan. 06, 2013 Rise Set
Actual Time 8:42 AM GMT 3:56 PM GMT
Civil Twilight 7:55 AM GMT 4:43 PM GMT
Nautical Twilight 7:07 AM GMT 5:31 PM GMT
Astronomical Twilight 6:22 AM GMT 6:16 PM GMT
Moon 2:10 AM GMT (1/6) 11:40 AM GMT (1/6)
Length of Visible Light 8h 47m
Length of Day
7h 14m
Waning Crescent, 35% of the Moon is Illuminated
Jan 6
Waning Crescent
Jan 11
New
Jan 18
First Quarter
Jan 27
Full
Feb 3
Last Quarter

Hourly Weather History & Observations

Time (GMT) Temp. Windchill Dew Point Humidity Pressure Visibility Wind Dir Wind Speed Gust Speed Precip Events Conditions
12:20 AM 46.4 °F 42.4 °F 42.8 °F 87% 30.36 in - WSW 8.1 mph - N/A   Clear
12:50 AM 42.8 °F 38.6 °F 39.2 °F 87% 30.36 in - SW 6.9 mph - N/A   Clear
1:20 AM 44.6 °F 40.2 °F 42.8 °F 93% 30.36 in - West 8.1 mph - N/A   Clear
1:50 AM 42.8 °F 38.0 °F 41.0 °F 93% 30.36 in - West 8.1 mph - N/A   Clear
2:20 AM 41.0 °F 35.8 °F 39.2 °F 93% 30.36 in - WSW 8.1 mph - N/A   Clear
2:50 AM 39.2 °F 33.0 °F 37.4 °F 93% 30.39 in 6.2 mi WSW 9.2 mph - N/A   Unknown
3:20 AM 41.0 °F 35.8 °F 39.2 °F 93% 30.42 in 6.2 mi WSW 8.1 mph - N/A   Unknown
3:50 AM 41.0 °F 35.2 °F 39.2 °F 93% 30.42 in 6.2 mi WSW 9.2 mph - N/A   Unknown
4:20 AM 41.0 °F 35.2 °F 39.2 °F 93% 30.42 in - WSW 9.2 mph - N/A   Clear
4:50 AM 42.8 °F 38.6 °F 41.0 °F 93% 30.42 in 6.2 mi West 6.9 mph - N/A   Partly Cloudy
5:20 AM 42.8 °F 38.6 °F 41.0 °F 93% 30.42 in 6.2 mi WSW 6.9 mph - N/A   Partly Cloudy
5:50 AM 42.8 °F 39.3 °F 41.0 °F 93% 30.39 in 6.2 mi West 5.8 mph - N/A   Partly Cloudy
6:20 AM 41.0 °F 39.0 °F 39.2 °F 93% 30.39 in 6.2 mi West 3.5 mph - N/A   Partly Cloudy
6:50 AM 39.2 °F - 37.4 °F 93% 30.39 in 6.2 mi West 2.3 mph - N/A   Partly Cloudy
7:20 AM 39.2 °F - 39.2 °F 100% 30.39 in 6.2 mi Variable 2.3 mph - N/A   Partly Cloudy
7:50 AM 39.2 °F 35.9 °F 39.2 °F 100% 30.39 in 6.2 mi West 4.6 mph - N/A   Partly Cloudy
8:20 AM 39.2 °F - 39.2 °F 100% 30.36 in 6.2 mi Variable 2.3 mph - N/A   Scattered Clouds
8:50 AM 37.4 °F 34.9 °F 35.6 °F 93% 30.36 in 6.2 mi NE 3.5 mph - N/A   Scattered Clouds
9:20 AM 37.4 °F - 37.4 °F 100% 30.36 in 6.2 mi Variable 2.3 mph - N/A   Scattered Clouds
9:50 AM 35.6 °F - 35.6 °F 100% 30.36 in 6.2 mi Variable 2.3 mph - N/A Fog Shallow Fog
10:20 AM 39.2 °F 35.0 °F 39.2 °F 100% 30.36 in 6.2 mi WSW 5.8 mph - N/A   Partly Cloudy
10:50 AM 41.0 °F 38.0 °F 41.0 °F 100% 30.36 in 6.2 mi North 4.6 mph - N/A   Scattered Clouds
11:20 AM 44.6 °F 42.2 °F 42.8 °F 93% 30.33 in 6.2 mi NNE 4.6 mph - N/A   Scattered Clouds
11:50 AM 46.4 °F 43.5 °F 42.8 °F 87% 30.33 in 6.2 mi NE 5.8 mph - N/A   Mostly Cloudy
12:20 PM 46.4 °F 42.4 °F 42.8 °F 87% 30.30 in 6.2 mi NE 8.1 mph - N/A   Scattered Clouds
12:50 PM 44.6 °F 40.7 °F 42.8 °F 93% 30.27 in 6.2 mi NE 6.9 mph - N/A   Mostly Cloudy
1:20 PM 46.4 °F 44.3 °F 44.6 °F 93% 30.27 in 6.2 mi Variable 4.6 mph - N/A   Scattered Clouds
1:50 PM 48.2 °F - 44.6 °F 87% 30.24 in 6.2 mi Variable 3.5 mph - N/A   Scattered Clouds
2:20 PM 51.8 °F - 46.4 °F 82% 30.24 in 6.2 mi SSW 13.8 mph - N/A   Mostly Cloudy
2:50 PM 50.0 °F - 44.6 °F 82% 30.24 in 6.2 mi SW 12.7 mph - N/A   Partly Cloudy
3:20 PM 50.0 °F - 44.6 °F 82% 30.24 in 6.2 mi SW 9.2 mph - N/A   Partly Cloudy
3:50 PM 50.0 °F - 44.6 °F 82% 30.24 in 6.2 mi SW 11.5 mph - N/A   Partly Cloudy
4:20 PM 50.0 °F - 44.6 °F 82% 30.24 in 6.2 mi SW 12.7 mph - N/A   Partly Cloudy
4:50 PM 50.0 °F - 42.8 °F 76% 30.21 in 6.2 mi SW 11.5 mph - N/A   Scattered Clouds
5:20 PM 50.0 °F - 42.8 °F 76% 30.21 in 6.2 mi WSW 9.2 mph - N/A   Scattered Clouds
5:50 PM 48.2 °F - 42.8 °F 82% 30.21 in 6.2 mi SW 13.8 mph - N/A   Mostly Cloudy
6:20 PM 48.2 °F - 42.8 °F 82% 30.21 in 6.2 mi SW 12.7 mph - N/A   Mostly Cloudy
6:50 PM 48.2 °F - 42.8 °F 82% 30.21 in 6.2 mi SW 15.0 mph - N/A   Mostly Cloudy
7:20 PM 48.2 °F - 42.8 °F 82% 30.21 in 6.2 mi SW 13.8 mph - N/A   Mostly Cloudy
7:50 PM 48.2 °F - 42.8 °F 82% 30.21 in 6.2 mi WSW 12.7 mph - N/A   Scattered Clouds
8:20 PM 48.2 °F - 44.6 °F 87% 30.21 in - WSW 10.4 mph - N/A   Clear
8:50 PM 48.2 °F - 44.6 °F 87% 30.21 in 6.2 mi WSW 9.2 mph - N/A   Scattered Clouds
9:20 PM 48.2 °F - 44.6 °F 87% 30.21 in 6.2 mi WSW 11.5 mph - N/A   Partly Cloudy
9:50 PM 48.2 °F - 44.6 °F 87% 30.21 in 6.2 mi SW 12.7 mph - N/A   Mostly Cloudy
10:20 PM 48.2 °F - 44.6 °F 87% 30.18 in 6.2 mi WSW 9.2 mph - N/A   Scattered Clouds
10:50 PM 48.2 °F - 44.6 °F 87% 30.18 in 6.2 mi WSW 9.2 mph - N/A   Scattered Clouds
11:20 PM 48.2 °F - 44.6 °F 87% 30.18 in 6.2 mi WSW 11.5 mph - N/A   Scattered Clouds
11:50 PM 48.2 °F - 44.6 °F 87% 30.18 in 6.2 mi WSW 11.5 mph - N/A Rain Light Rain